Regional Weather Roundup
Issued by NWS Cleveland, OH

Home | Current Version | Previous Version | Graphics & Text | Print | Product List | Glossary On
Versions: 1 2 3 4 5 6 7 8 9 10 11 12 13 14 15 16 17 18 19 20 21 22 23 24 25 26 27 28 29 30 31 32 33 34 35 36 37 38 39 40 41 42 43 44 45 46 47 48 49 50
000
ASUS41 KCLE 211100
RWRCLE
OHIO REGIONAL WEATHER ROUNDUP
NATIONAL WEATHER SERVICE WILMINGTON, OH
700 AM EDT THU AUG 21 2014

NOTE: "FAIR" INDICATES FEW OR NO CLOUDS BELOW 12,000 FEET WITH NO
SIGNIFICANT WEATHER AND/OR OBSTRUCTIONS TO VISIBILITY.

OHZ001>008-015>018-024>027-034-035-043-044-211200-
   NORTHWEST OHIO

CITY           SKY/WX    TMP DP  RH WIND       PRES   REMARKS
DEFIANCE       PTCLDY    67  65  93 CALM      29.98S FOG
FINDLAY        MOCLDY    68  65  90 SW6       29.98S
TOLEDO EXPRESS CLEAR     68  67  96 SW3       29.97R FOG
TOLEDO METCALF CLEAR     68  65  90 SW7       29.98R
LIMA           CLOUDY    70  67  90 S3        30.00F
$$

OHZ009>014-019>023-028>033-038-089-211200-
   NORTHEAST OHIO

CITY           SKY/WX    TMP DP  RH WIND       PRES   REMARKS
CLE-HOPKINS    PTCLDY    66  64  93 SW6       30.01R
CLE-LAKEFRONT  MOCLDY    71  65  81 CALM      29.98R
CUY CO. ARPT   MOCLDY    68  66  94 CALM      30.00
LORAIN-ELYRIA  PTCLDY    68  63  84 W5        30.00R
ASHTABULA      MOCLDY    65  64  97 CALM      30.01R
AKRON-CANTON   PTCLDY    67  63  87 CALM      30.02R
WOOSTER        NOT AVBL
MANSFIELD      MOCLDY    67  66  97 SW5       30.03R
YOUNGSTOWN     MOCLDY    65  64  97 CALM      30.02R
$$

OHZ042-051>053-060>062-070>072-077>081-211200-
  SOUTHWEST OHIO

CITY           SKY/WX    TMP DP  RH WIND       PRES   REMARKS
CINC-COVINGTON PTCLDY    70  68  93 S7        30.04S FOG
CINC-LUNKEN    CLOUDY    70  68  93 CALM      30.04S
HAMILTON       CLOUDY    72  70  93 NE5       30.05R
DAYTON         NOT AVBL
WRIGHT-PAT AFB NOT AVBL
DAYTON GENERAL TSTM      71  69  93 W13G18    30.10R
WILMINGTON     LGT RAIN  67  65  93 SW5       30.05R FOG
$$

OHZ036-037-039>041-045>050-054>059-063>069-073>076-082>088-211200-
  CENTRAL AND SOUTHEAST OHIO

CITY           SKY/WX    TMP DP  RH WIND       PRES   REMARKS
COLUMBUS       CLOUDY    71  65  81 S3        30.02F
OSU AIRPORT    CLOUDY    70  66  87 W3        30.03S
BOLTON FIELD   NOT AVBL
RICKENBACK AFB NOT AVBL
NEWARK         CLOUDY    68  65  90 S5        30.03R FOG
MARION         CLOUDY    68  65  90 S6        30.02R
LANCASTER      MOCLDY    69  66  90 CALM      30.04S
ZANESVILLE     CLOUDY    67  65  93 S7        30.04R FOG
NEW PHILLY     FOG       64  64 100 E3        30.03R VSB 3/4
$$



USA.gov is the U.S. government's official web portal to all federal, state and local government web resources and services.